Regional Weather Roundup
Issued by NWS Charleston, SC

Current Version | Previous Version | Text Only | Print | Product List | Glossary Off
Versions: 1 2 3 4 5 6 7 8 9 10 11 12 13 14 15 16 17 18 19 20 21 22 23 24 25 26 27 28 29 30 31 32 33 34 35 36 37 38 39 40 41 42 43 44 45 46 47 48 49 50

000
ASUS42 KCHS 261611
RWRCHS

REGIONAL WEATHER ROUNDUP
NATIONAL WEATHER SERVICE CHARLESTON SC
1100 AM EST SUN FEB 26 2017

NOTE: "FAIR" INDICATES FEW OR NO CLOUDS BELOW 12,000 FEET WITH NO
SIGNIFICANT WEATHER AND/OR OBSTRUCTIONS TO VISIBILITY.

NOT ALL STATIONS ARE QUALITY CONTROLLED. USE DATA WITH CAUTION...
ESPECIALLY DEWPOINT OBSERVATIONS.

SCZ027-030-031-034>040-042>050-261700-
...SOUTHEAST SOUTH CAROLINA...

CITY           SKY/WX    TMP DP  RH WIND       PRES   REMARKS
N CHARLESTON   SUNNY     58  24  27 VRB5      30.21F
WATERFRONT PRK   N/A     54  30  40 NE6       30.22R
MOUNT PLEASANT LGT RAIN  57  27  30 N3        30.22S
JOHNS ISLAND   FAIR      57  27  30 VRB3      30.22S
PINOPOLIS        N/A     50  27  40 VRB2      30.14S
MONCKS CORNER  FAIR      54  19  26 CALM      30.23R
SUMMERVILLE    FAIR      54  25  32 N6        30.23S
BEAUFORT MCAS  SUNNY     59  29  31 N7        30.23S
BEAUFORT ARPT  FAIR      55  30  38 E5        30.22S
HILTON HEAD IS SUNNY     57  28  33 N12       30.24R
WALTERBORO     SUNNY     55  23  28 NE7       30.23F
ALLENDALE      FAIR      54  21  28 CALM      30.22S

...SOUTHERN MIDLANDS AND PEE DEE...

CITY           SKY/WX    TMP DP  RH WIND       PRES   REMARKS
GEORGETOWN     FAIR      54  19  26 N5        30.23F
KINGSTREE      FAIR      52  21  30 NW3       30.22F
ORANGEBURG     SUNNY     53  18  25 CALM      30.22S
BARNWELL       FAIR      55  23  28 CALM      30.23S
AIKEN          FAIR      50  21  32 N5        30.25S
MANNING        FAIR      52  19  28 MISG      30.22F
COLUMBIA       SUNNY     53  18  25 CALM      30.22S
SUMTER         SUNNY     53  19  27 N5        30.20S
FLORENCE       MOSUNNY   52  19  27 NW8       30.23R
MYRTLE BEACH   SUNNY     54  18  24 N14       30.24R
N MYRTLE BEACH MOSUNNY   54  21  27 E3        30.21R

$$

GAZ063-065-086>088-099>101-113>116-118-119-134>141-150-261700-
...SOUTHEAST GEORGIA...

CITY           SKY/WX    TMP DP  RH WIND       PRES   REMARKS
SAVANNAH ARPT  SUNNY     56  22  26 VRB3      30.24S
HUNTER AAF     SUNNY     57  28  33 CALM      30.21S
FORT STEWART   SUNNY     57  23  26 NW5       30.23R
STATESBORO     SUNNY     56  29  34 N3        30.23F
SYLVANIA       SUNNY    N/A N/A N/A CALM      30.24S
CLAXTON        FAIR      56  30  36 CALM      30.24S

...CSRA...CENTRAL AND FAR SOUTHEAST GEORGIA...

CITY           SKY/WX    TMP DP  RH WIND       PRES   REMARKS
THOMSON        SUNNY     54  25  33 CALM      30.27R
AUGUSTA-BUSH   SUNNY     55  24  30 NW6       30.23S
AUGUSTA-DANIEL SUNNY     53  20  27 VRB7      30.23S
SWAINSBORO     FAIR      55  19  24 N6        30.24S
VIDALIA        SUNNY     57  28  33 NW3       30.23F
EASTMAN        FAIR      56 -21   4 CALM      30.27R
HAZLEHURST     FAIR      57  23  27 CALM      30.24S
ALMA           SUNNY     57  23  26 VRB3      30.25R
WAYCROSS       SUNNY     60  26  27 N6        30.26R
JESUP          FAIR      59  18  20 CALM      30.25S
BAXLEY         FAIR      55  28  35 NE3       30.25R
BRUNSWICK      SUNNY     61  30  31 CALM      30.26R
SAINT SIMONS   SUNNY     59  22  24 VRB7      30.25R

$$

SCZ027-028-034-036>038-045-046-048>050-GAZ119-141-261700-
...LAKE AND SUPPLEMENTAL COASTAL OBSERVATIONS...

STATION/POSITION TIME  TEMP    WIND        PRES    WAVE   SWELL
                       AIR SEA DIR/SP/G            HT/PER HT/PER/DIR
                 (UTC) (F)     (DEG/KT/KT) (MB)    (FT/S) (FT/S/D)
WINYAH BAY       1445   52      20/  6     1022.0
LAKE MURRAY      1520   50     360/  2/  6 1023.0R
ACE BASIN NERRS  NOT AVBL
FORT PULASKI     1548   54 63   10/  3/  6 1024.1R
SAPELO ISLAND    1500   56     350/  9     1024.0

$$

ANZ835-935-AMZ111-154-330-350-352-354-370-450-454-472-261700-
...C-MAN AND BUOY OBSERVATIONS...

STATION/POSITION TIME  TEMP    WIND        PRES    WAVE   SWELL
                       AIR SEA DIR/SP/G            HT/PER HT/PER/DIR
                 (UTC) (F)     (DEG/KT/KT) (MB)    (FT/S) (FT/S/D)
BUOY 41004       1450   57 69  360/ 10/ 14 1022.0    4/10   3/110/10
BUOY 41008       1450   54 62  350/ 14/ 17 1023.0    4/11   2/110/11
FOLLY BEACH CMAN 1500   54     340/  7/ 10 1023.7R
CAPERS NEARSHORE 1508   52 60   20/  8/ 12 1023.2R
FRIPP NEARSHORE  1508   53 62  360/ 10/ 14 1023.2R


STATION/POSITION TIME  TEMP    WIND        PRES    WAVE   SWELL
                       AIR SEA DIR/SP/G            HT/PER HT/PER/DIR
                 (UTC) (F)     (DEG/KT/KT) (MB)    (FT/S) (FT/S/D)
5E ST. MARYS GA  1530      64                N/A     3/11   2/ 80/11
FRYING PAN BUOY  1550   53 70  360/ 12/ 17 1022.5R   4/10   2/120/10
BUOY 41025       1550   51 72  350/ 12/ 17 1021.0R   6/ 9   5/120/ 9
CAPE LOOKOUT NC  1500   49     340/ 13/ 15 1021.0R
BUOY 41002       1550   69 71  300/ 12/ 16 1019.2R   8/ 8   7/310/ 8
BUOY 41010       NOT AVBL
ST AUGUSTINE FL  1600   58 65  360/ 16/ 18 1024.6R


$$



USA.gov is the U.S. government's official web portal to all federal, state and local government web resources and services.